OK2ARM-6 Weather Reports


time (UTC)temp
C
wind
direction
speed
KPH
gust
KPH
rain 1hr
cm
rain 24hr
cm
rain mn
cm
humidity
%
barometer
mb
20260505111204 24 0.0 0.0 0.00 0.00 0.00 100 1008.4
20260505100717 22 0.0 0.0 0.00 0.00 0.00 100 1008.9
20260505094454 21 0.0 0.0 0.00 0.00 0.00 100 1009.1
20260505092230 18 0.0 0.0 0.00 0.00 0.00 100 1009.1
20260505091230 18 0.0 0.0 0.00 0.00 0.00 100 1009.2
20260505090230 18 0.0 0.0 0.00 0.00 0.00 100 1009.2
20260505084005 17 0.0 0.0 0.00 0.00 0.00 100 1009.3
20260505083005 17 0.0 0.0 0.00 0.00 0.00 100 1009.4
20260505082005 17 0.0 0.0 0.00 0.00 0.00 100 1009.3
20260505081005 16 0.0 0.0 0.00 0.00 0.00 100 1009.5
20260505080005 16 0.0 0.0 0.00 0.00 0.00 100 1009.6
20260505075006 16 0.0 0.0 0.00 0.00 0.00 100 1009.5
20260505074005 16 0.0 0.0 0.00 0.00 0.00 100 1009.6
20260505073006 15 0.0 0.0 0.00 0.00 0.00 100 1009.6
20260505072006 15 0.0 0.0 0.00 0.00 0.00 100 1009.6
20260505071006 15 0.0 0.0 0.00 0.00 0.00 100 1009.6
20260505070006 15 0.0 0.0 0.00 0.00 0.00 100 1009.7
20260505065005 15 0.0 0.0 0.00 0.00 0.00 100 1009.9
20260505064005 14 0.0 0.0 0.00 0.00 0.00 100 1010.0
20260505063005 14 0.0 0.0 0.00 0.00 0.00 100 1010.0
20260505062006 13 0.0 0.0 0.00 0.00 0.00 100 1009.9
20260505061005 12 0.0 0.0 0.00 0.00 0.00 100 1010.0
20260505060006 11 0.0 0.0 0.00 0.00 0.00 100 1010.0
20260505055006 11 0.0 0.0 0.00 0.00 0.00 100 1010.0
20260505054005 10 0.0 0.0 0.00 0.00 0.00 100 1010.0
20260505053006 9 0.0 0.0 0.00 0.00 0.00 100 1009.9
20260505050742 7 0.0 0.0 0.00 0.00 0.00 100 1009.9
20260505041742 6 0.0 0.0 0.00 0.00 0.00 100 1009.8
20260505040742 6 0.0 0.0 0.00 0.00 0.00 100 1009.7
20260505035742 6 0.0 0.0 0.00 0.00 0.00 100 1009.7
20260505033516 6 0.0 0.0 0.00 0.00 0.00 100 1009.8
20260505031252 7 0.0 0.0 0.00 0.00 0.00 100 1010.1
20260505030252 7 0.0 0.0 0.00 0.00 0.00 100 1010.2
20260505025253 7 0.0 0.0 0.00 0.00 0.00 100 1010.3
20260505023027 7 0.0 0.0 0.00 0.00 0.00 100 1010.6
20260505022026 7 0.0 0.0 0.00 0.00 0.00 100 1010.6
20260505021027 8 0.0 0.0 0.00 0.00 0.00 100 1010.8
20260505020026 8 0.0 0.0 0.00 0.00 0.00 100 1010.9
20260505015027 8 0.0 0.0 0.00 0.00 0.00 100 1010.9
20260505010316 8 0.0 0.0 0.00 0.00 0.00 100 1010.8
20260505005316 8 0.0 0.0 0.00 0.00 0.00 100 1010.9
20260505004316 8 0.0 0.0 0.00 0.00 0.00 100 1011.0
20260505003316 8 0.0 0.0 0.00 0.00 0.00 100 1011.1
20260505002316 8 0.0 0.0 0.00 0.00 0.00 100 1011.1
20260505001316 9 0.0 0.0 0.00 0.00 0.00 100 1011.3
20260505000316 9 0.0 0.0 0.00 0.00 0.00 100 1011.3
20260504234052 9 0.0 0.0 0.00 0.00 0.00 100 1011.6
20260504233052 10 0.0 0.0 0.00 0.00 0.00 100 1011.7
20260504232052 10 0.0 0.0 0.00 0.00 0.00 100 1011.8
20260504231052 10 0.0 0.0 0.00 0.00 0.00 100 1011.8
20260504230052 10 0.0 0.0 0.00 0.00 0.00 100 1011.8
20260504225053 10 0.0 0.0 0.00 0.00 0.00 100 1012.0
20260504224052 10 0.0 0.0 0.00 0.00 0.00 100 1012.1
20260504223052 11 0.0 0.0 0.00 0.00 0.00 100 1012.2
20260504222053 11 0.0 0.0 0.00 0.00 0.00 100 1012.2
20260504214605 12 0.0 0.0 0.00 0.00 0.00 100 1012.4
20260504213605 12 0.0 0.0 0.00 0.00 0.00 100 1012.5
20260504212605 12 0.0 0.0 0.00 0.00 0.00 100 1012.6
20260504211605 12 0.0 0.0 0.00 0.00 0.00 100 1012.6
20260504204118 14 0.0 0.0 0.00 0.00 0.00 100 1012.8
20260504203118 15 0.0 0.0 0.00 0.00 0.00 100 1012.8
20260504202118 15 0.0 0.0 0.00 0.00 0.00 100 1012.8
20260504201118 15 0.0 0.0 0.00 0.00 0.00 100 1012.9
20260504200118 16 0.0 0.0 0.00 0.00 0.00 100 1013.0
20260504193854 16 0.0 0.0 0.00 0.00 0.00 1013.0
20260504190408 17 0.0 0.0 0.00 0.00 0.00 100 1013.0
20260504185407 17 0.0 0.0 0.00 0.00 0.00 100 1013.0
20260504184407 18 0.0 0.0 0.00 0.00 0.00 100 1012.8
20260504182144 20 0.0 0.0 0.00 0.00 0.00 100 1012.8
20260504175920 21 0.0 0.0 0.00 0.00 0.00 100 1012.6
20260504174920 21 0.0 0.0 0.00 0.00 0.00 100 1012.6
20260504173920 21 0.0 0.0 0.00 0.00 0.00 100 1012.7
20260504172921 22 0.0 0.0 0.00 0.00 0.00 100 1012.6
20260504171919 22 0.0 0.0 0.00 0.00 0.00 100 1012.7
20260504170920 22 0.0 0.0 0.00 0.00 0.00 100 1012.7
20260504150207 27 0.0 0.0 0.00 0.00 0.00 100 1012.9
20260504141207 27 0.0 0.0 0.00 0.00 0.00 100 1013.4
20260504140206 27 0.0 0.0 0.00 0.00 0.00 100 1013.7